RRR4183 LIMC-DAAG

Flight info

Callsign RRR4183
Flight time N/A
Altitude 31000
Route DOGUB6TXNEDED6I/35R NEDED DCT GEKBA DCT VAMTU DCT KOLON DCT GANGU DCT PADKO DCT VATIR N852 GENIO N855 BUYAH
Aircraft A400/H-SDE2E3FGHIJ4J5M1RWXYZ/L4T

Departure

Time 2026-05-05 15:50
Airport Milan Malpensa International Airport (LIMC)

Arrival

Time N/A
Airport Houari Boumediene Airport (DAAG)
Time Latitude Longitude Altitude Speed Heading
2026-05-05 15:27 45.63368 8.71653 762 ft 0 kts 307°
2026-05-05 15:33 45.63363 8.71661 762 ft 2 kts 306°
2026-05-05 15:34 45.63355 8.71677 758 ft 2 kts 306°
2026-05-05 15:34 45.63347 8.71693 760 ft 2 kts 307°
2026-05-05 15:34 45.63338 8.71709 754 ft 2 kts 308°
2026-05-05 15:34 45.63330 8.71723 762 ft 2 kts 315°
2026-05-05 15:35 45.63323 8.71733 762 ft 1 kts 338°
2026-05-05 15:35 45.63313 8.71737 762 ft 2 kts
2026-05-05 15:35 45.63297 8.71734 762 ft 2 kts 14°
2026-05-05 15:35 45.63292 8.71733 762 ft 1 kts 35°
2026-05-05 15:36 45.63286 8.71726 762 ft 1 kts 65°
2026-05-05 15:36 45.63282 8.71710 759 ft 2 kts 78°
2026-05-05 15:36 45.63279 8.71691 762 ft 2 kts 79°
2026-05-05 15:36 45.63277 8.71672 762 ft 2 kts 79°
2026-05-05 15:37 45.63275 8.71660 762 ft 1 kts 79°
2026-05-05 15:37 45.63274 8.71653 756 ft 1 kts 79°
2026-05-05 15:37 45.63273 8.71645 758 ft 1 kts 80°
2026-05-05 15:37 45.63273 8.71644 758 ft 0 kts 80°
2026-05-05 15:40 45.63273 8.71646 762 ft 0 kts 87°
2026-05-05 15:40 45.63268 8.71651 762 ft 1 kts 127°
2026-05-05 15:40 45.63252 8.71662 759 ft 6 kts 156°
2026-05-05 15:41 45.63179 8.71683 762 ft 15 kts 171°
2026-05-05 15:41 45.63057 8.71713 760 ft 21 kts 170°
2026-05-05 15:41 45.62899 8.71759 762 ft 25 kts 166°
2026-05-05 15:41 45.62718 8.71811 760 ft 27 kts 169°
2026-05-05 15:42 45.62533 8.71862 759 ft 27 kts 169°
2026-05-05 15:42 45.62352 8.71910 757 ft 26 kts 169°
2026-05-05 15:42 45.62172 8.71959 758 ft 26 kts 167°
2026-05-05 15:42 45.61996 8.72011 762 ft 26 kts 169°
2026-05-05 15:43 45.61819 8.72059 762 ft 26 kts 169°
2026-05-05 15:43 45.61644 8.72109 758 ft 26 kts 169°
2026-05-05 15:43 45.61469 8.72157 761 ft 26 kts 169°
2026-05-05 15:43 45.61296 8.72202 759 ft 25 kts 169°
2026-05-05 15:44 45.61122 8.72252 759 ft 26 kts 169°
2026-05-05 15:44 45.60947 8.72300 763 ft 26 kts 169°
2026-05-05 15:44 45.60771 8.72350 761 ft 26 kts 169°
2026-05-05 15:44 45.60638 8.72478 760 ft 24 kts 98°
2026-05-05 15:45 45.60622 8.72715 763 ft 24 kts 96°
2026-05-05 15:45 45.60605 8.72951 759 ft 24 kts 94°
2026-05-05 15:45 45.60595 8.73186 758 ft 23 kts 78°
2026-05-05 15:45 45.60709 8.73313 757 ft 21 kts 20°
2026-05-05 15:46 45.60846 8.73394 763 ft 20 kts 23°
2026-05-05 15:46 45.60963 8.73390 759 ft 15 kts 347°
2026-05-05 15:46 45.61064 8.73360 760 ft 14 kts 348°
2026-05-05 15:46 45.61165 8.73333 760 ft 16 kts 349°
2026-05-05 15:47 45.61243 8.73311 761 ft 18 kts 349°
2026-05-05 15:47 45.61423 8.73260 759 ft 21 kts 349°
2026-05-05 15:47 45.61571 8.73220 759 ft 20 kts 350°
2026-05-05 15:47 45.61613 8.73258 762 ft 5 kts 66°
2026-05-05 15:48 45.61624 8.73324 759 ft 9 kts 81°
2026-05-05 15:48 45.61629 8.73435 762 ft 13 kts 104°
2026-05-05 15:48 45.61586 8.73564 758 ft 16 kts 99°
2026-05-05 15:48 45.61624 8.73723 754 ft 17 kts 22°
2026-05-05 15:49 45.61726 8.73707 753 ft 13 kts 348°
2026-05-05 15:49 45.61884 8.73662 753 ft 58 kts 349°
2026-05-05 15:49 45.62614 8.73461 755 ft 151 kts 348°
2026-05-05 15:49 45.63705 8.73150 1269 ft 172 kts 348°
2026-05-05 15:50 45.64905 8.72790 2120 ft 185 kts 349°
2026-05-05 15:50 45.66239 8.72381 2809 ft 206 kts 349°
2026-05-05 15:50 45.67738 8.71907 3408 ft 238 kts 348°
2026-05-05 15:50 45.69434 8.71375 4069 ft 259 kts 348°
2026-05-05 15:51 45.71244 8.70787 4697 ft 272 kts 343°
2026-05-05 15:51 45.72970 8.69638 4956 ft 276 kts 324°
2026-05-05 15:51 45.73895 8.68396 4985 ft 275 kts 306°
2026-05-05 15:51 45.74664 8.65007 4996 ft 272 kts 266°
2026-05-05 15:52 45.74098 8.62421 5403 ft 280 kts 241°
2026-05-05 15:52 45.73038 8.60092 6492 ft 277 kts 232°
2026-05-05 15:52 45.71841 8.58014 7647 ft 273 kts 228°
2026-05-05 15:52 45.70981 8.56655 8409 ft 273 kts 227°
2026-05-05 15:53 45.69238 8.54014 9893 ft 274 kts 224°
2026-05-05 15:53 45.67701 8.52328 10660 ft 287 kts 212°
2026-05-05 15:53 45.66518 8.51377 10947 ft 301 kts 208°
2026-05-05 15:53 45.63906 8.49648 11713 ft 314 kts 205°
2026-05-05 15:54 45.62562 8.48863 12187 ft 317 kts 204°
2026-05-05 15:54 45.60497 8.47708 12908 ft 320 kts 203°
2026-05-05 15:54 45.57728 8.46176 13908 ft 324 kts 203°
2026-05-05 15:54 45.55620 8.45008 14583 ft 326 kts 203°
2026-05-05 15:55 45.53480 8.43891 15261 ft 328 kts 202°
2026-05-05 15:55 45.51320 8.42814 15947 ft 330 kts 201°
2026-05-05 15:55 45.49878 8.42107 16402 ft 331 kts 201°
2026-05-05 15:55 45.46952 8.40682 17328 ft 333 kts 201°
2026-05-05 15:56 45.45494 8.39971 17755 ft 335 kts 201°
2026-05-05 15:56 45.43281 8.38888 18403 ft 337 kts 201°
2026-05-05 15:56 45.41056 8.37795 18869 ft 339 kts 201°
2026-05-05 15:56 45.38043 8.36309 19570 ft 344 kts 202°
2026-05-05 15:57 45.35779 8.35190 20149 ft 346 kts 202°
2026-05-05 15:57 45.34267 8.34444 20525 ft 347 kts 202°
2026-05-05 15:57 45.31976 8.33313 21097 ft 350 kts 202°
2026-05-05 15:57 45.28877 8.31785 21831 ft 354 kts 202°
2026-05-05 15:58 45.27335 8.31025 22186 ft 355 kts 202°
2026-05-05 15:58 45.24993 8.29874 22743 ft 357 kts 202°
2026-05-05 15:58 45.21870 8.28339 23444 ft 360 kts 202°
2026-05-05 15:58 45.19487 8.27169 23889 ft 363 kts 202°
2026-05-05 15:59 45.17875 8.26378 24169 ft 364 kts 202°
2026-05-05 15:59 45.15473 8.25202 24591 ft 365 kts 203°
2026-05-05 15:59 45.11441 8.23333 25232 ft 370 kts 198°
2026-05-05 16:00 45.07208 8.22145 25802 ft 375 kts 194°
2026-05-05 16:00 45.05464 8.21732 26036 ft 376 kts 194°
2026-05-05 16:00 45.02029 8.20983 26480 ft 379 kts 193°
2026-05-05 16:00 44.99414 8.20437 26785 ft 380 kts 193°
2026-05-05 16:01 44.96795 8.19894 27128 ft 380 kts 193°
2026-05-05 16:01 44.94180 8.19349 27507 ft 380 kts 194°
2026-05-05 16:01 44.91570 8.18800 27916 ft 378 kts 194°
2026-05-05 16:01 44.88975 8.18250 28354 ft 376 kts 194°
2026-05-05 16:02 44.86399 8.17701 28837 ft 373 kts 194°
2026-05-05 16:02 44.83833 8.17152 29287 ft 372 kts 194°
2026-05-05 16:02 44.81314 8.16612 29702 ft 370 kts 194°
2026-05-05 16:02 44.78770 8.16067 30132 ft 369 kts 194°
2026-05-05 16:03 44.76238 8.15525 30519 ft 367 kts 195°
2026-05-05 16:03 44.73722 8.14982 30867 ft 364 kts 196°
2026-05-05 16:03 44.72048 8.14516 31014 ft 363 kts 199°
2026-05-05 16:04 44.66652 8.11644 30971 ft 350 kts 212°
2026-05-05 16:04 44.62448 8.08237 30971 ft 348 kts 215°
2026-05-05 16:05 44.58342 8.04652 30951 ft 348 kts 216°
2026-05-05 16:05 44.54928 8.01670 30967 ft 347 kts 216°
2026-05-05 16:06 44.50138 7.97543 30968 ft 347 kts 215°
2026-05-05 16:06 44.46680 7.94587 30964 ft 348 kts 215°
2026-05-05 16:07 44.41858 7.90481 30959 ft 349 kts 215°
2026-05-05 16:07 44.38413 7.87553 30958 ft 349 kts 215°
2026-05-05 16:08 44.34260 7.84025 30949 ft 349 kts 215°
2026-05-05 16:08 44.30124 7.80520 30956 ft 346 kts 215°
2026-05-05 16:09 44.26799 7.77433 30959 ft 344 kts 221°
2026-05-05 16:09 44.22560 7.72434 30985 ft 343 kts 223°
2026-05-05 16:10 44.20173 7.69495 30965 ft 341 kts 224°
2026-05-05 16:12 44.06104 7.49022 30953 ft 334 kts 230°
2026-05-05 16:13 43.97983 7.36056 30941 ft 334 kts 230°
2026-05-05 16:13 43.94929 7.31205 30940 ft 334 kts 230°
2026-05-05 16:14 43.88798 7.21488 30943 ft 335 kts 230°
2026-05-05 16:15 43.82666 7.11802 30952 ft 332 kts 230°
2026-05-05 16:16 43.77072 7.02997 30943 ft 334 kts 230°
2026-05-05 16:17 43.74008 6.98149 30915 ft 334 kts 232°
2026-05-05 16:18 43.67711 6.80216 30932 ft 335 kts 245°
2026-05-05 16:19 43.66848 6.77238 30934 ft 334 kts 245°
2026-05-05 16:19 43.64241 6.68345 30926 ft 334 kts 245°
2026-05-05 16:20 43.60711 6.56459 30934 ft 334 kts 245°
2026-05-05 16:22 43.56280 6.41622 30913 ft 335 kts 244°
2026-05-05 16:23 43.52724 6.29769 30912 ft 334 kts 244°
2026-05-05 16:23 43.50053 6.20903 30915 ft 334 kts 244°
2026-05-05 16:24 43.48279 6.15031 30915 ft 334 kts 244°
2026-05-05 16:25 43.45595 6.06175 30921 ft 334 kts 244°
2026-05-05 16:25 43.43210 5.98327 30910 ft 333 kts 244°
2026-05-05 16:26 43.39622 5.86571 30909 ft 333 kts 244°
2026-05-05 16:27 43.37821 5.80690 30903 ft 333 kts 244°
2026-05-05 16:27 43.36019 5.74817 30917 ft 333 kts 244°
2026-05-05 16:28 43.34214 5.68947 30928 ft 334 kts 244°
2026-05-05 16:28 43.32415 5.63114 30912 ft 334 kts 244°
2026-05-05 16:29 43.30598 5.57236 30918 ft 334 kts 244°
2026-05-05 16:29 43.28476 5.50379 30916 ft 333 kts 243°
2026-05-05 16:30 43.26665 5.44545 30928 ft 332 kts 243°
2026-05-05 16:30 43.25158 5.39701 30927 ft 332 kts 243°
2026-05-05 16:31 43.22996 5.34137 30927 ft 329 kts 234°
2026-05-05 16:31 43.19925 5.29487 30926 ft 330 kts 224°
2026-05-05 16:32 43.15907 5.24673 30920 ft 331 kts 222°
2026-05-05 16:32 43.12382 5.20609 30912 ft 331 kts 222°
2026-05-05 16:33 43.08872 5.16546 30902 ft 330 kts 222°
2026-05-05 16:33 43.05383 5.12483 30905 ft 329 kts 222°
2026-05-05 16:34 43.01909 5.08430 30906 ft 329 kts 222°
2026-05-05 16:34 42.99018 5.05062 30908 ft 329 kts 222°
2026-05-05 16:35 42.94944 5.00324 30903 ft 329 kts 222°
2026-05-05 16:35 42.92050 4.96964 30902 ft 329 kts 222°
2026-05-05 16:36 42.87977 4.92243 30905 ft 329 kts 222°
2026-05-05 16:36 42.85081 4.88892 30905 ft 328 kts 222°
2026-05-05 16:37 42.81030 4.84211 30905 ft 329 kts 222°
2026-05-05 16:37 42.77532 4.80176 30905 ft 329 kts 222°
2026-05-05 16:38 42.74043 4.76157 30900 ft 329 kts 222°
2026-05-05 16:38 42.71140 4.72819 30902 ft 329 kts 222°
2026-05-05 16:39 42.67645 4.68804 30893 ft 329 kts 222°
2026-05-05 16:39 42.64150 4.64796 30892 ft 329 kts 222°
2026-05-05 16:40 42.60655 4.60795 30896 ft 329 kts 222°
2026-05-05 16:40 42.57186 4.56828 30922 ft 329 kts 222°
2026-05-05 16:41 42.53664 4.52806 30890 ft 331 kts 222°
2026-05-05 16:41 42.50144 4.48794 30890 ft 330 kts 222°
2026-05-05 16:42 42.46635 4.44802 30895 ft 329 kts 222°
2026-05-05 16:42 42.43129 4.40817 30889 ft 329 kts 222°
2026-05-05 16:43 42.39625 4.36841 30884 ft 329 kts 222°
2026-05-05 16:43 42.36119 4.32869 30889 ft 329 kts 222°
2026-05-05 16:44 42.32635 4.28928 30848 ft 329 kts 222°
2026-05-05 16:44 42.29128 4.24966 30883 ft 329 kts 222°
2026-05-05 16:45 42.25619 4.21008 30884 ft 328 kts 222°
2026-05-05 16:45 42.22110 4.17056 30890 ft 329 kts 222°
2026-05-05 16:46 42.18585 4.13112 30884 ft 330 kts 220°
2026-05-05 16:46 42.14721 4.09733 30885 ft 332 kts 214°
2026-05-05 16:47 42.10678 4.06696 30876 ft 333 kts 213°
2026-05-05 16:47 42.06602 4.03730 30884 ft 333 kts 213°
2026-05-05 16:48 42.02530 4.00770 30881 ft 332 kts 213°
2026-05-05 16:48 41.98462 3.97802 30881 ft 332 kts 213°
2026-05-05 16:49 41.94386 3.94863 30881 ft 334 kts 211°
2026-05-05 16:49 41.89940 3.92852 30877 ft 342 kts 200°
2026-05-05 16:50 41.85241 3.91624 30872 ft 345 kts 198°
2026-05-05 16:50 41.80507 3.90565 30874 ft 345 kts 197°
2026-05-05 16:51 41.75796 3.89518 30873 ft 345 kts 197°
2026-05-05 16:51 41.71826 3.88618 30877 ft 345 kts 197°
2026-05-05 16:52 41.66321 3.87355 30875 ft 346 kts 197°
2026-05-05 16:52 41.61570 3.86262 30875 ft 346 kts 197°
2026-05-05 16:53 41.56821 3.85172 30878 ft 346 kts 197°
2026-05-05 16:53 41.52074 3.84083 30878 ft 346 kts 197°
2026-05-05 16:54 41.47359 3.83001 30876 ft 347 kts 197°
2026-05-05 16:54 41.42551 3.81899 30881 ft 349 kts 197°
2026-05-05 16:55 41.37803 3.80815 30892 ft 348 kts 197°
2026-05-05 16:55 41.33032 3.79729 30885 ft 347 kts 198°
2026-05-05 16:56 41.28277 3.78647 30846 ft 346 kts 198°
2026-05-05 16:56 41.23515 3.77562 30877 ft 348 kts 198°
2026-05-05 16:57 41.18740 3.76476 30879 ft 348 kts 198°
2026-05-05 16:57 41.13964 3.75394 30880 ft 348 kts 198°
2026-05-05 16:58 41.09191 3.74314 30880 ft 348 kts 198°
2026-05-05 16:58 41.04449 3.73241 30873 ft 349 kts 198°
2026-05-05 16:59 40.99636 3.72153 30877 ft 351 kts 198°
2026-05-05 16:59 40.94823 3.71069 30875 ft 351 kts 197°
2026-05-05 17:00 40.89999 3.69985 30881 ft 351 kts 198°
2026-05-05 17:00 40.85217 3.68911 30874 ft 351 kts 197°
2026-05-05 17:01 40.80393 3.67827 30879 ft 353 kts 197°
2026-05-05 17:01 40.76336 3.66917 30878 ft 353 kts 197°
2026-05-05 17:02 40.70697 3.65657 30878 ft 353 kts 197°
2026-05-05 17:02 40.65851 3.64575 30875 ft 353 kts 197°
2026-05-05 17:03 40.61006 3.63495 30875 ft 353 kts 197°
2026-05-05 17:03 40.56158 3.62415 30876 ft 353 kts 197°
2026-05-05 17:04 40.51314 3.61338 30875 ft 353 kts 197°
2026-05-05 17:04 40.46466 3.60261 30875 ft 353 kts 197°
2026-05-05 17:05 40.42438 3.59368 30875 ft 353 kts 197°
2026-05-05 17:05 40.36771 3.58109 30876 ft 357 kts 197°
2026-05-05 17:06 40.31866 3.57025 30880 ft 358 kts 197°
2026-05-05 17:06 40.27754 3.56118 30877 ft 358 kts 197°
2026-05-05 17:07 40.22046 3.54862 30877 ft 358 kts 197°
2026-05-05 17:07 40.17132 3.53780 30873 ft 359 kts 197°
2026-05-05 17:08 40.12178 3.52688 30878 ft 361 kts 197°
2026-05-05 17:08 40.08054 3.51784 30879 ft 361 kts 197°
2026-05-05 17:09 40.02287 3.50522 30878 ft 361 kts 197°
2026-05-05 17:09 39.97326 3.49437 30849 ft 362 kts 197°
2026-05-05 17:10 39.92346 3.48348 30879 ft 364 kts 197°
2026-05-05 17:10 39.89006 3.47619 30876 ft 364 kts 197°
2026-05-05 17:11 39.82352 3.46171 30883 ft 364 kts 197°
2026-05-05 17:11 39.77347 3.45083 30881 ft 364 kts 197°
2026-05-05 17:12 39.72339 3.43994 30876 ft 366 kts 196°
2026-05-05 17:12 39.67290 3.42912 30884 ft 368 kts 196°
2026-05-05 17:13 39.62226 3.41860 30885 ft 369 kts 196°
2026-05-05 17:13 39.57163 3.40815 30888 ft 369 kts 196°
2026-05-05 17:14 39.52099 3.39767 30879 ft 369 kts 195°
2026-05-05 17:14 39.47018 3.38714 30890 ft 370 kts 195°
2026-05-05 17:15 39.42782 3.37838 30892 ft 371 kts 195°
2026-05-05 17:15 39.36863 3.36617 30892 ft 370 kts 195°
2026-05-05 17:16 39.32598 3.35738 30896 ft 370 kts 195°
2026-05-05 17:16 39.27535 3.34695 30900 ft 373 kts 195°
2026-05-05 17:17 39.21516 3.33455 30896 ft 375 kts 195°
2026-05-05 17:17 39.16362 3.32399 30901 ft 375 kts 195°
2026-05-05 17:18 39.11199 3.31342 30903 ft 375 kts 195°
2026-05-05 17:18 39.06041 3.30287 30895 ft 376 kts 195°
2026-05-05 17:19 39.00862 3.29229 30904 ft 377 kts 195°
2026-05-05 17:19 38.95685 3.28173 30906 ft 377 kts 195°
2026-05-05 17:20 38.90505 3.27118 30906 ft 377 kts 195°
2026-05-05 17:20 38.86197 3.26242 30908 ft 377 kts 195°
2026-05-05 17:21 38.80174 3.25018 30915 ft 378 kts 194°
2026-05-05 17:22 38.72359 3.23433 30915 ft 379 kts 194°
2026-05-05 17:22 38.67158 3.22381 30918 ft 379 kts 194°
2026-05-05 17:23 38.62826 3.21506 30914 ft 379 kts 194°
2026-05-05 17:23 38.57622 3.20456 30913 ft 380 kts 194°
2026-05-05 17:24 38.52393 3.19401 30918 ft 380 kts 194°
2026-05-05 17:24 38.48045 3.18527 30917 ft 381 kts 194°
2026-05-05 17:25 38.41926 3.17298 30919 ft 381 kts 194°
2026-05-05 17:25 38.36690 3.16247 30919 ft 380 kts 194°
2026-05-05 17:26 38.31465 3.15204 30922 ft 381 kts 193°
2026-05-05 17:26 38.26125 3.14849 30925 ft 386 kts 186°
2026-05-05 17:27 38.20740 3.14900 30929 ft 387 kts 185°
2026-05-05 17:27 38.15349 3.15032 30927 ft 387 kts 185°
2026-05-05 17:28 38.09944 3.15181 30928 ft 390 kts 184°
2026-05-05 17:28 38.04506 3.15422 30933 ft 391 kts 184°
2026-05-05 17:29 37.99071 3.15688 30933 ft 391 kts 184°
2026-05-05 17:29 37.93630 3.15948 30933 ft 391 kts 184°
2026-05-05 17:30 37.88199 3.16199 31030 ft 389 kts 184°
2026-05-05 17:30 37.82861 3.16448 30364 ft 379 kts 184°
2026-05-05 17:30 37.80243 3.16567 29552 ft 383 kts 184°
2026-05-05 17:31 37.77555 3.16683 28839 ft 389 kts 184°
2026-05-05 17:31 37.74834 3.16801 28198 ft 392 kts 184°
2026-05-05 17:31 37.72096 3.16923 27510 ft 395 kts 184°
2026-05-05 17:31 37.69346 3.17048 26830 ft 396 kts 184°
2026-05-05 17:32 37.66588 3.17174 26110 ft 396 kts 184°
2026-05-05 17:32 37.63847 3.17302 25606 ft 392 kts 184°
2026-05-05 17:32 37.61127 3.17430 25077 ft 390 kts 184°
2026-05-05 17:32 37.58428 3.17555 24539 ft 387 kts 184°
2026-05-05 17:33 37.55746 3.17678 24008 ft 384 kts 184°
2026-05-05 17:33 37.53085 3.17800 23470 ft 381 kts 184°
2026-05-05 17:33 37.50446 3.17920 22874 ft 378 kts 184°
2026-05-05 17:33 37.47859 3.18036 22358 ft 376 kts 184°
2026-05-05 17:34 37.45254 3.18152 21848 ft 374 kts 184°
2026-05-05 17:34 37.43492 3.18231 21495 ft 373 kts 184°
2026-05-05 17:34 37.40072 3.18384 20814 ft 370 kts 184°
2026-05-05 17:34 37.38335 3.18462 20475 ft 369 kts 184°
2026-05-05 17:35 37.35770 3.18578 19950 ft 368 kts 184°
2026-05-05 17:35 37.32396 3.18729 19252 ft 366 kts 184°
2026-05-05 17:35 37.29858 3.18843 18734 ft 364 kts 184°
2026-05-05 17:35 37.27327 3.18957 18198 ft 363 kts 184°
2026-05-05 17:36 37.24810 3.19070 17630 ft 361 kts 184°
2026-05-05 17:36 37.22310 3.19182 17109 ft 358 kts 183°
2026-05-05 17:36 37.19822 3.19294 16604 ft 355 kts 183°
2026-05-05 17:36 37.18189 3.19368 16259 ft 353 kts 183°
2026-05-05 17:37 37.14919 3.19515 15569 ft 349 kts 183°
2026-05-05 17:37 37.13317 3.19587 15226 ft 347 kts 183°
2026-05-05 17:37 37.10912 3.19695 14712 ft 345 kts 183°
2026-05-05 17:37 37.07717 3.19837 14036 ft 341 kts 182°
2026-05-05 17:38 37.06148 3.19953 13602 ft 342 kts 179°
2026-05-05 17:38 37.03814 3.20609 12822 ft 346 kts 165°
2026-05-05 17:38 36.99460 3.24964 11359 ft 349 kts 135°
2026-05-05 17:39 36.98441 3.26562 10956 ft 347 kts 133°
2026-05-05 17:39 36.96504 3.29692 10158 ft 341 kts 133°
2026-05-05 17:39 36.96017 3.30484 9969 ft 339 kts 133°
2026-05-05 17:39 36.94107 3.33582 9112 ft 332 kts 133°
2026-05-05 17:40 36.92264 3.36565 8524 ft 319 kts 133°
2026-05-05 17:40 36.90950 3.38695 8233 ft 300 kts 133°
2026-05-05 17:40 36.90119 3.40039 8042 ft 292 kts 133°
2026-05-05 17:40 36.88903 3.42001 7557 ft 277 kts 133°
2026-05-05 17:41 36.87333 3.44524 6880 ft 276 kts 133°
2026-05-05 17:41 36.86154 3.46412 6444 ft 274 kts 132°
2026-05-05 17:41 36.84991 3.48278 6034 ft 271 kts 132°
2026-05-05 17:41 36.83840 3.50125 5638 ft 268 kts 131°
2026-05-05 17:42 36.83082 3.51341 5384 ft 268 kts 131°
2026-05-05 17:42 36.81833 3.53036 5061 ft 263 kts 144°
2026-05-05 17:42 36.81330 3.53477 5001 ft 260 kts 152°
2026-05-05 17:42 36.79070 3.54229 4702 ft 254 kts 183°
2026-05-05 17:43 36.76870 3.53220 3926 ft 258 kts 217°
2026-05-05 17:43 36.75197 3.51117 3390 ft 259 kts 228°
2026-05-05 17:43 36.74400 3.49968 3117 ft 260 kts 229°
2026-05-05 17:43 36.72844 3.47709 2777 ft 259 kts 229°
2026-05-05 17:44 36.71681 3.46035 2748 ft 248 kts 229°
2026-05-05 17:44 36.70948 3.44985 2746 ft 238 kts 229°
2026-05-05 17:44 36.69564 3.43007 2735 ft 211 kts 231°